Merlot Commodore — WDD7653 — position and weather

sailwx.info

Track history (hours):
 
Tides and Currents Weather Stations Pressure Air Temp Water Temp Dewpoint Dewpoint Depression Visibility Wind Speed Wind Dir Waves Ship Positions

Merlot Commodore

Owner: Proescher, Ward H, Alameda, CA. More information available from US FCC via Universal Licensing System and Coast Guard Vessel Documentation Center.

Last reported at 2017-Oct-15 04:18 UTC. Time now 2017-Oct-17 11:13 UTC.
Position N 37°47' W 122°17'.

Length 24 m; draft 1.8 m.

Type: Passenger vessel. MMSI: 367189370.

Date/timePositionNaut miles runAvg speedWind from/ knotsBaromVisibWave heightAir tempDewpointWater temp
2017-Oct-15 04:18N 37°47' W 122°17'0 1.4
2017-Oct-15 04:00N 37°48' W 122°17'3 5.4
2017-Oct-15 03:31N 37°48' W 122°20'4 7.4
2017-Oct-15 03:00N 37°50' W 122°25'3 6.2
2017-Oct-15 02:30N 37°49' W 122°28'3 5.8
2017-Oct-15 02:00N 37°49' W 122°25'3 6.6
2017-Oct-15 01:30N 37°48' W 122°21'3 6.9
2017-Oct-15 01:01N 37°47' W 122°17'0 0.0
2017-Oct-15 00:30N 37°47' W 122°17'0 0.0
2017-Oct-14 23:59N 37°47' W 122°17'0 0.0
2017-Oct-14 18:50N 37°47' W 122°17'0 0.0
2017-Oct-14 18:30N 37°47' W 122°17'0 0.0
2017-Oct-14 18:00N 37°47' W 122°17'  
2017-Oct-08 23:59N 37°47' W 122°17'1 2.8
2017-Oct-08 23:31N 37°48' W 122°18'4 7.2
2017-Oct-08 23:00N 37°48' W 122°23'1 2.8
2017-Oct-08 22:30N 37°49' W 122°24'0 0.1
2017-Oct-08 22:00N 37°49' W 122°24'0 0.8
2017-Oct-08 21:30N 37°49' W 122°24'0 0.2
2017-Oct-08 21:00N 37°49' W 122°24'2 3.9
2017-Oct-08 20:30N 37°48' W 122°22'4 7.7
2017-Oct-08 20:00N 37°48' W 122°17'0 0.6
2017-Oct-08 19:30N 37°47' W 122°17'0 0.0
2017-Oct-08 19:00N 37°47' W 122°17'0 0.0
2017-Oct-08 14:52N 37°47' W 122°17'0 0.0
2017-Oct-08 14:30N 37°47' W 122°17'0 0.0
2017-Oct-08 14:00N 37°47' W 122°17'0 0.0
2017-Oct-07 23:59N 37°47' W 122°17'3 6.1
2017-Oct-07 23:31N 37°48' W 122°20'3 5.1
2017-Oct-07 23:00N 37°47' W 122°23'1 2.5
2017-Oct-07 22:31N 37°48' W 122°23'1 2.8
2017-Oct-07 22:01N 37°49' W 122°24'2 3.1
2017-Oct-07 21:31N 37°49' W 122°26'1 1.4
2017-Oct-07 21:00N 37°49' W 122°26'2 3.3
2017-Oct-07 20:30N 37°48' W 122°24'2 3.1
2017-Oct-07 20:00N 37°47' W 122°23'0 0.2
2017-Oct-07 19:31N 37°47' W 122°23'3 5.9
2017-Oct-07 19:00N 37°48' W 122°19'2 4.5
2017-Oct-07 18:31N 37°47' W 122°17'0 0.0
2017-Oct-07 14:54N 37°47' W 122°17'0 0.0
2017-Oct-07 14:30N 37°47' W 122°17'0 0.0
2017-Oct-07 14:00N 37°47' W 122°17'0 0.0
2017-Oct-07 00:01N 37°47' W 122°17'0 0.0
2017-Oct-07 00:00N 37°47' W 122°17'2 4.2
2017-Oct-06 23:30N 37°48' W 122°19'3 6.5
2017-Oct-06 23:00N 37°49' W 122°23'1 2.9
2017-Oct-06 22:30N 37°50' W 122°25'0 0.0
2017-Oct-06 22:00N 37°50' W 122°25'0 0.3
2017-Oct-06 21:30N 37°50' W 122°25'0 0.2
2017-Oct-06 21:00N 37°50' W 122°25'1 2.2
2017-Oct-06 20:30N 37°49' W 122°24'4 7.2
2017-Oct-06 20:01N 37°48' W 122°19'2 4.5
2017-Oct-06 19:30N 37°47' W 122°17'0 0.0
2017-Oct-06 19:00N 37°47' W 122°17'0 0.0
2017-Oct-06 15:18N 37°47' W 122°17'0 0.0
2017-Oct-06 15:00N 37°47' W 122°17'0 0.0
2017-Oct-06 14:30N 37°47' W 122°17'0 0.0
2017-Oct-06 02:31N 37°47' W 122°17'0 0.0
2017-Oct-06 02:30N 37°47' W 122°17'2 4.7
2017-Oct-06 02:01N 37°48' W 122°20'3 5.9
2017-Oct-06 01:30N 37°47' W 122°23'2 3.2
2017-Oct-06 01:00N 37°48' W 122°22'3 5.4
2017-Oct-06 00:30N 37°49' W 122°25'3 5.3
2017-Oct-06 00:01N 37°50' W 122°28'3 5.2
2017-Oct-05 23:30N 37°50' W 122°25'3 5.9
2017-Oct-05 23:00N 37°47' W 122°23'0 0.7
2017-Oct-05 22:30N 37°47' W 122°23'0 0.0
2017-Oct-05 22:00N 37°47' W 122°23'3 7.0
2017-Oct-05 21:31N 37°48' W 122°19'2 3.5
2017-Oct-05 21:00N 37°47' W 122°17'0 0.0
2017-Oct-05 17:11N 37°47' W 122°17'0 0.0
2017-Oct-05 17:00N 37°47' W 122°17'  
Track history (hours):
 
Tides and Currents Weather Stations Pressure Air Temp Water Temp Dewpoint Dewpoint Depression Visibility Wind Speed Wind Dir Waves Ship Positions

Merlot Commodore

Owner: Proescher, Ward H, Alameda, CA. More information available from US FCC via Universal Licensing System and Coast Guard Vessel Documentation Center.

Last reported at 2017-Oct-15 04:18 UTC. Time now 2017-Oct-17 11:13 UTC.
Position N 37°47' W 122°17'.

Length 24 m; draft 1.8 m.

Type: Passenger vessel. MMSI: 367189370.

Date/timePositionNaut miles runAvg speedWind from/ knotsBaromVisibWave heightAir tempDewpointWater temp
2017-Oct-15 04:18N 37°47' W 122°17'0 1.4
2017-Oct-15 04:00N 37°48' W 122°17'3 5.4
2017-Oct-15 03:31N 37°48' W 122°20'4 7.4
2017-Oct-15 03:00N 37°50' W 122°25'3 6.2
2017-Oct-15 02:30N 37°49' W 122°28'3 5.8
2017-Oct-15 02:00N 37°49' W 122°25'3 6.6
2017-Oct-15 01:30N 37°48' W 122°21'3 6.9
2017-Oct-15 01:01N 37°47' W 122°17'0 0.0
2017-Oct-15 00:30N 37°47' W 122°17'0 0.0
2017-Oct-14 23:59N 37°47' W 122°17'0 0.0
2017-Oct-14 18:50N 37°47' W 122°17'0 0.0
2017-Oct-14 18:30N 37°47' W 122°17'0 0.0
2017-Oct-14 18:00N 37°47' W 122°17'  
2017-Oct-08 23:59N 37°47' W 122°17'1 2.8
2017-Oct-08 23:31N 37°48' W 122°18'4 7.2
2017-Oct-08 23:00N 37°48' W 122°23'1 2.8
2017-Oct-08 22:30N 37°49' W 122°24'0 0.1
2017-Oct-08 22:00N 37°49' W 122°24'0 0.8
2017-Oct-08 21:30N 37°49' W 122°24'0 0.2
2017-Oct-08 21:00N 37°49' W 122°24'2 3.9
2017-Oct-08 20:30N 37°48' W 122°22'4 7.7
2017-Oct-08 20:00N 37°48' W 122°17'0 0.6
2017-Oct-08 19:30N 37°47' W 122°17'0 0.0
2017-Oct-08 19:00N 37°47' W 122°17'0 0.0
2017-Oct-08 14:52N 37°47' W 122°17'0 0.0
2017-Oct-08 14:30N 37°47' W 122°17'0 0.0
2017-Oct-08 14:00N 37°47' W 122°17'0 0.0
2017-Oct-07 23:59N 37°47' W 122°17'3 6.1
2017-Oct-07 23:31N 37°48' W 122°20'3 5.1
2017-Oct-07 23:00N 37°47' W 122°23'1 2.5
2017-Oct-07 22:31N 37°48' W 122°23'1 2.8
2017-Oct-07 22:01N 37°49' W 122°24'2 3.1
2017-Oct-07 21:31N 37°49' W 122°26'1 1.4
2017-Oct-07 21:00N 37°49' W 122°26'2 3.3
2017-Oct-07 20:30N 37°48' W 122°24'2 3.1
2017-Oct-07 20:00N 37°47' W 122°23'0 0.2
2017-Oct-07 19:31N 37°47' W 122°23'3 5.9
2017-Oct-07 19:00N 37°48' W 122°19'2 4.5
2017-Oct-07 18:31N 37°47' W 122°17'0 0.0
2017-Oct-07 14:54N 37°47' W 122°17'0 0.0
2017-Oct-07 14:30N 37°47' W 122°17'0 0.0
2017-Oct-07 14:00N 37°47' W 122°17'0 0.0
2017-Oct-07 00:01N 37°47' W 122°17'0 0.0
2017-Oct-07 00:00N 37°47' W 122°17'2 4.2
2017-Oct-06 23:30N 37°48' W 122°19'3 6.5
2017-Oct-06 23:00N 37°49' W 122°23'1 2.9
2017-Oct-06 22:30N 37°50' W 122°25'0 0.0
2017-Oct-06 22:00N 37°50' W 122°25'0 0.3
2017-Oct-06 21:30N 37°50' W 122°25'0 0.2
2017-Oct-06 21:00N 37°50' W 122°25'1 2.2
2017-Oct-06 20:30N 37°49' W 122°24'4 7.2
2017-Oct-06 20:01N 37°48' W 122°19'2 4.5
2017-Oct-06 19:30N 37°47' W 122°17'0 0.0
2017-Oct-06 19:00N 37°47' W 122°17'0 0.0
2017-Oct-06 15:18N 37°47' W 122°17'0 0.0
2017-Oct-06 15:00N 37°47' W 122°17'0 0.0
2017-Oct-06 14:30N 37°47' W 122°17'0 0.0
2017-Oct-06 02:31N 37°47' W 122°17'0 0.0
2017-Oct-06 02:30N 37°47' W 122°17'2 4.7
2017-Oct-06 02:01N 37°48' W 122°20'3 5.9
2017-Oct-06 01:30N 37°47' W 122°23'2 3.2
2017-Oct-06 01:00N 37°48' W 122°22'3 5.4
2017-Oct-06 00:30N 37°49' W 122°25'3 5.3
2017-Oct-06 00:01N 37°50' W 122°28'3 5.2
2017-Oct-05 23:30N 37°50' W 122°25'3 5.9
2017-Oct-05 23:00N 37°47' W 122°23'0 0.7
2017-Oct-05 22:30N 37°47' W 122°23'0 0.0
2017-Oct-05 22:00N 37°47' W 122°23'3 7.0
2017-Oct-05 21:31N 37°48' W 122°19'2 3.5
2017-Oct-05 21:00N 37°47' W 122°17'0 0.0
2017-Oct-05 17:11N 37°47' W 122°17'0 0.0
2017-Oct-05 17:00N 37°47' W 122°17'  

Dump ship's entire track history